Wind_Speed
17 16 15 15 14 14 11 10 10 8 6 4 4 4 4 4 4 3 2 3 3 3 3 3 3 4 6 7 9 10 12 13 15 16 17 18 18 19 19 19 19 18 18 17
16 15 14 13 12 11 9 7 7 7 5 4 2 2 2 3 3 3 2 2 2 2 3 3 4 5 5 7 9 10 12 13 14 16 17 18 18 19 20 19 19 18 17 17
14 13 12 11 10 9 7 6 4 3 3 2 1 1 1 2 2 2 2 2 2 2 3 4 4 5 5 7 9 10 12 13 14 15 16 17 18 19 20 20 19 18 17 17
15 13 12 10 8 7 5 5 3 3 3 2 1 1 1 1 2 2 2 3 2 2 3 4 5 5 6 7 9 10 11 12 13 15 15 17 18 19 20 20 19 18 17 16
13 12 10 9 8 5 5 4 4 3 2 1 1 1 1 0 1 2 3 3 3 3 3 4 5 5 6 7 8 10 11 12 13 14 15 16 17 18 19 20 19 18 18 17
12 11 9 9 7 5 4 4 3 2 1 2 1 0 1 2 3 3 3 4 4 4 4 4 5 5 6 7 8 9 10 11 12 13 14 16 17 18 19 19 18 18 18 17
13 11 9 8 6 5 4 3 2 2 3 2 1 1 2 3 4 4 4 5 5 4 5 5 5 5 6 7 8 9 10 11 12 13 14 15 16 17 18 18 18 18 17 17
11 10 8 7 5 4 3 2 2 3 3 3 2 1 2 3 4 5 6 5 5 5 5 5 6 6 6 7 7 8 9 10 11 12 13 14 15 16 17 18 18 17 17 17
9 9 8 6 5 3 2 1 0 1 2 3 3 3 3 4 6 6 7 7 7 6 6 6 6 7 7 7 7 8 9 10 11 12 13 14 14 15 16 17 17 17 17 17
8 7 6 5 4 3 1 1 1 2 3 3 4 4 6 7 8 8 8 8 8 7 7 7 7 8 8 8 8 8 9 10 10 11 12 13 14 14 15 16 16 16 17 17
6 5 4 3 2 1 0 2 2 3 4 5 5 5 8 9 10 10 9 9 9 8 8 9 9 9 9 9 9 9 9 9 10 10 11 12 13 14 14 15 15 15 16 16
4 3 2 1 1 0 1 3 4 4 5 6 8 7 9 11 11 11 10 10 10 10 9 9 10 10 10 10 10 10 10 10 10 10 11 11 12 13 13 13 14 14 14 15
3 2 2 2 2 3 3 5 6 7 7 9 10 10 11 13 12 12 11 11 11 11 11 11 11 11 11 12 12 11 11 11 10 10 10 11 11 12 12 12 13 13 13 13
4 4 4 4 5 5 6 7 8 9 10 11 12 13 13 14 14 14 13 13 13 13 13 13 13 13 13 13 13 13 13 12 12 11 11 11 11 11 11 11 12 12 12 12
6 7 7 7 7 8 9 10 11 12 12 13 14 14 15 15 16 16 16 15 15 14 14 14 14 14 14 15 15 15 15 14 13 13 12 11 11 11 11 11 11 11 11 11
7 7 8 8 9 10 11 12 12 14 15 15 16 16 17 17 17 17 17 17 16 16 16 16 16 16 16 16 16 17 16 16 15 15 14 13 12 11 11 11 10 10 10 10
9 9 9 9 10 11 13 13 14 15 16 17 17 17 18 18 18 18 18 18 18 18 18 18 18 18 18 18 18 18 18 18 17 17 16 15 14 13 12 12 11 10 10 10
11 11 12 12 12 13 14 15 16 17 18 18 18 19 20 20 20 20 20 20 20 20 20 20 20 21 21 21 21 21 20 20 19 19 18 17 16 15 14 13 12 11 11 10
14 14 15 15 16 16 17 17 18 19 20 20 20 21 22 22 23 23 23 23 23 23 23 23 23 23 23 23 23 23 22 22 22 21 21 20 19 18 17 15 14 13 12 12
16 17 18 18 19 20 20 20 21 22 23 23 23 24 25 25 25 25 26 26 27 27 26 25 25 25 26 26 25 25 25 24 24 24 23 22 21 20 19 18 17 16 14 13
20 20 21 22 23 24 24 24 25 26 27 27 27 28 29 29 30 29 28 29 29 30 30 29 28 28 28 28 28 28 27 27 26 26 26 25 24 23 22 21 19 18 17 16
23 24 25 26 27 27 28 28 28 29 31 31 32 32 32 33 33 33 33 33 32 33 33 33 32 32 31 31 31 30 30 30 29 29 28 27 26 25 25 23 22 21 19 18
26 27 28 29 30 31 31 32 32 33 34 35 36 36 37 37 37 37 37 36 37 37 37 37 36 35 35 35 35 34 33 33 32 31 31 30 29 28 27 26 25 23 22 21
29 31 31 32 33 34 34 35 36 37 38 39 40 40 40 41 41 41 41 40 40 40 40 40 40 39 38 38 38 38 37 36 35 34 33 33 31 31 30 29 28 26 25 23
32 33 34 35 36 37 38 39 40 40 41 42 43 43 44 44 44 44 45 44 44 43 43 43 43 42 42 41 41 41 40 40 39 37 36 35 34 33 32 32 30 29 28 26
35 36 37 37 38 40 41 42 43 44 44 45 46 46 47 48 48 47 47 47 47 47 46 46 46 45 45 44 43 44 43 43 42 41 39 38 37 36 35 34 33 32 30 29
Wind_Direction
174 176 180 185 190 201 209 211 214 217 218 235 256 243 247 255 266 278 297 313 305 282 271 287 303 319 327 333 338 340 342 342 344 346 347 346 346 346 344 342 339 336 333 331
161 164 171 176 183 184 188 192 203 208 210 222 234 235 252 267 265 275 296 330 316 283 275 291 303 314 323 331 334 336 337 340 343 345 346 346 347 348 347 345 341 339 337 334
149 157 165 166 170 175 173 183 187 184 178 193 222 273 288 298 289 287 307 328 321 285 283 296 298 309 320 328 332 333 336 339 341 344 346 347 348 349 350 348 346 343 341 340
140 142 147 148 151 153 160 172 165 158 163 165 196 242 301 311 324 339 321 321 314 302 285 292 299 307 318 325 329 332 336 338 341 344 347 350 351 352 352 351 350 348 346 344
125 127 132 138 141 143 150 143 140 148 163 207 223 262 327 332 357 346 328 325 322 310 289 283 292 304 316 324 329 332 335 339 342 345 347 349 351 353 354 353 352 351 351 350
116 117 116 122 125 124 132 143 155 180 213 231 234 314 39 64 28 6 335 324 320 308 295 285 289 302 311 321 329 332 336 339 342 345 347 349 351 353 354 355 355 355 356 356
114 115 114 115 116 119 124 145 186 221 226 223 247 2 21 21 14 356 328 317 311 307 299 290 289 297 308 317 324 330 335 339 343 347 349 351 353 355 356 358 358 359 360 360
112 112 112 119 117 115 108 139 200 221 229 233 253 294 333 351 349 340 330 321 315 308 294 287 285 291 301 308 317 325 333 339 344 347 349 351 354 357 358 0 2 4 4 5
106 105 106 107 109 111 118 154 210 244 251 247 263 285 303 314 323 327 324 318 314 304 294 285 280 284 293 300 308 318 327 335 340 344 348 352 354 356 359 1 5 8 8 8
99 103 103 103 98 91 72 349 283 259 266 264 273 289 296 300 307 311 311 309 309 304 297 289 281 280 285 292 300 308 319 328 335 340 345 351 354 356 359 2 5 8 10 11
85 90 95 106 103 96 350 314 301 288 285 282 288 290 290 295 302 307 306 304 301 299 294 288 282 278 279 284 291 299 308 317 325 333 339 345 352 356 359 2 4 7 9 12
67 59 66 75 36 10 327 311 303 301 299 292 291 287 294 299 303 304 302 298 295 293 290 286 280 277 276 279 284 289 296 303 312 322 330 336 344 351 356 359 2 5 8 11
31 21 17 357 337 336 318 306 308 306 304 299 294 292 295 298 302 304 301 296 291 287 284 282 279 278 276 276 278 283 288 293 300 309 318 325 333 342 349 354 358 2 5 8
357 354 350 338 320 311 309 307 307 305 303 300 298 296 293 295 297 300 299 296 292 287 281 279 278 278 276 275 276 278 281 285 290 296 304 312 321 330 339 346 351 356 0 4
339 335 334 329 318 312 309 308 305 302 302 300 299 297 295 294 295 296 296 296 293 287 282 277 275 275 275 275 275 275 277 279 282 285 291 298 307 317 326 335 340 344 350 355
325 321 319 316 312 310 309 308 303 301 301 300 300 300 299 298 298 297 296 296 294 289 284 279 276 274 273 272 273 273 273 274 276 278 281 286 294 302 311 320 328 334 338 343
318 316 312 308 307 307 305 307 305 303 303 304 303 301 298 298 299 297 294 292 290 289 286 283 278 275 274 273 272 272 271 271 272 272 274 278 282 288 295 303 312 319 324 330
317 317 313 309 308 307 310 309 307 306 304 304 302 301 300 298 297 295 293 289 286 285 283 282 279 277 275 273 271 271 270 269 269 269 270 272 275 279 284 289 295 302 310 316
317 314 312 312 313 312 309 307 306 305 303 302 300 299 298 296 294 293 291 288 285 282 280 279 277 276 275 273 271 270 269 268 268 267 267 268 270 272 275 279 283 289 295 302
312 311 310 310 310 309 309 307 305 302 300 300 298 297 295 293 291 290 288 285 283 281 280 278 276 275 273 272 271 269 268 267 266 265 265 265 266 268 269 271 275 280 284 289
308 308 307 307 306 305 306 306 303 301 301 299 297 295 294 292 291 289 285 282 280 279 278 276 274 272 272 270 269 268 267 266 265 264 263 263 263 264 265 266 269 272 275 279
305 303 303 303 303 303 304 302 300 299 298 297 296 294 292 290 289 288 287 284 280 278 277 275 273 271 269 268 267 266 266 264 263 262 262 261 261 261 262 263 265 267 269 272
302 301 300 300 300 299 299 298 298 297 296 295 294 293 290 288 287 286 285 283 281 279 277 275 273 270 268 266 265 264 263 263 263 261 261 260 259 259 259 260 261 263 265 267
300 299 299 299 299 298 297 297 296 295 294 294 293 292 290 288 286 285 284 282 280 278 276 275 273 271 268 265 264 262 261 260 260 260 260 259 258 257 257 257 258 259 261 263
297 298 298 299 299 297 297 295 294 294 293 292 291 290 289 288 287 284 283 282 281 278 275 273 272 270 268 266 263 262 260 259 258 258 258 257 256 255 256 256 256 257 258 259
296 297 298 298 298 297 296 295 294 293 292 291 290 289 288 287 287 285 283 281 280 278 275 273 271 269 267 266 263 261 259 258 256 256 256 255 255 254 254 254 254 255 256 257
Height
5807 5813 5817 5821 5825 5827 5830 5833 5835 5837 5838 5839 5839 5840 5841 5840 5840 5840 5839 5839 5839 5839 5839 5839 5838 5837 5837 5835 5834 5832 5830 5827 5824 5821 5818 5814 5810 5806 5802 5798 5794 5791 5787 5783
5810 5814 5817 5821 5824 5827 5830 5832 5834 5836 5837 5838 5838 5839 5839 5839 5838 5838 5838 5838 5838 5838 5838 5837 5837 5836 5835 5834 5833 5831 5828 5826 5823 5820 5816 5813 5809 5805 5801 5796 5792 5788 5785 5781
5812 5816 5818 5821 5824 5827 5830 5832 5833 5835 5836 5836 5837 5838 5838 5837 5837 5837 5837 5837 5837 5837 5836 5836 5835 5835 5834 5833 5831 5829 5827 5824 5822 5819 5815 5811 5807 5803 5799 5795 5790 5786 5782 5779
5814 5817 5820 5823 5825 5828 5830 5832 5833 5834 5835 5835 5837 5838 5837 5837 5836 5835 5835 5836 5836 5836 5835 5835 5834 5833 5832 5831 5830 5828 5826 5823 5820 5817 5814 5810 5806 5802 5798 5793 5789 5785 5781 5777
5817 5820 5822 5825 5827 5829 5831 5832 5833 5834 5835 5835 5836 5837 5837 5836 5835 5834 5834 5834 5834 5834 5833 5833 5832 5831 5831 5830 5828 5827 5824 5822 5819 5816 5813 5809 5805 5801 5797 5792 5788 5784 5780 5776
5821 5823 5824 5826 5828 5830 5831 5832 5833 5834 5834 5835 5835 5835 5835 5834 5834 5833 5833 5833 5833 5832 5832 5831 5831 5830 5829 5828 5827 5825 5823 5821 5818 5815 5812 5808 5804 5800 5796 5792 5787 5783 5779 5775
5823 5825 5826 5827 5829 5830 5832 5833 5834 5834 5834 5834 5834 5834 5834 5833 5832 5832 5832 5831 5831 5831 5830 5830 5829 5828 5828 5827 5826 5824 5822 5820 5817 5814 5811 5807 5804 5800 5796 5791 5787 5783 5779 5775
5825 5827 5828 5829 5830 5830 5831 5833 5834 5834 5834 5833 5833 5832 5833 5832 5831 5831 5830 5830 5829 5829 5828 5828 5827 5827 5826 5825 5824 5823 5821 5819 5816 5813 5810 5807 5803 5799 5795 5791 5787 5783 5779 5775
5827 5828 5829 5829 5830 5831 5831 5832 5833 5833 5832 5832 5832 5832 5831 5830 5830 5829 5829 5828 5827 5827 5827 5826 5825 5825 5824 5824 5823 5821 5819 5817 5815 5812 5809 5806 5802 5799 5795 5791 5787 5783 5779 5776
5829 5829 5830 5830 5830 5831 5831 5831 5832 5832 5831 5831 5831 5830 5830 5829 5828 5828 5827 5826 5825 5825 5824 5824 5823 5823 5822 5821 5820 5819 5818 5816 5814 5811 5808 5805 5802 5798 5795 5791 5787 5784 5780 5776
5830 5831 5831 5831 5830 5831 5831 5831 5830 5830 5830 5830 5829 5831 5828 5827 5826 5826 5825 5824 5823 5823 5822 5822 5821 5820 5820 5819 5818 5817 5816 5814 5812 5810 5807 5805 5802 5798 5795 5791 5788 5784 5781 5777
5831 5831 5831 5831 5831 5830 5830 5829 5829 5829 5828 5827 5827 5830 5826 5825 5824 5823 5823 5822 5821 5820 5820 5819 5818 5818 5817 5816 5815 5814 5813 5812 5810 5808 5806 5804 5801 5798 5794 5791 5788 5785 5781 5778
5831 5831 5831 5831 5832 5830 5829 5828 5828 5827 5827 5825 5825 5827 5823 5822 5821 5820 5820 5819 5818 5817 5817 5816 5815 5815 5814 5813 5813 5812 5811 5809 5808 5806 5804 5802 5800 5797 5794 5791 5788 5785 5782 5779
5831 5830 5831 5831 5829 5828 5827 5827 5826 5825 5824 5823 5822 5822 5821 5819 5818 5817 5816 5815 5814 5814 5813 5813 5812 5811 5811 5810 5809 5808 5807 5806 5805 5803 5802 5800 5798 5796 5793 5790 5787 5785 5782 5779
5830 5829 5828 5828 5827 5826 5825 5824 5823 5822 5821 5820 5819 5818 5817 5816 5815 5814 5813 5812 5811 5810 5809 5808 5808 5807 5807 5806 5805 5804 5803 5803 5801 5800 5799 5797 5796 5794 5791 5789 5786 5784 5782 5779
5829 5828 5827 5826 5825 5824 5823 5822 5820 5819 5818 5817 5816 5815 5813 5812 5811 5810 5809 5808 5807 5806 5805 5804 5803 5803 5802 5801 5801 5800 5799 5798 5797 5797 5795 5794 5793 5791 5789 5787 5785 5783 5780 5778
5827 5826 5825 5824 5822 5821 5820 5819 5817 5815 5814 5813 5812 5812 5809 5808 5807 5806 5805 5804 5802 5801 5800 5799 5799 5798 5797 5796 5796 5795 5794 5793 5793 5792 5791 5790 5789 5788 5786 5785 5783 5781 5779 5777
5824 5823 5822 5820 5820 5818 5819 5815 5813 5811 5809 5808 5806 5805 5804 5803 5801 5800 5799 5798 5797 5796 5795 5794 5793 5792 5792 5791 5790 5789 5788 5788 5787 5787 5786 5785 5785 5784 5782 5781 5780 5778 5776 5775
5820 5819 5817 5816 5814 5813 5812 5810 5808 5806 5804 5802 5801 5799 5798 5796 5795 5794 5792 5791 5790 5789 5788 5787 5786 5786 5785 5784 5783 5783 5782 5782 5781 5780 5780 5780 5779 5778 5778 5777 5776 5774 5773 5771
5816 5814 5813 5811 5809 5807 5807 5805 5802 5801 5798 5796 5794 5792 5791 5790 5788 5788 5785 5783 5782 5781 5780 5780 5779 5778 5777 5777 5776 5776 5775 5775 5774 5774 5773 5773 5773 5772 5772 5771 5771 5770 5769 5767
5811 5809 5807 5805 5803 5801 5800 5798 5796 5794 5792 5789 5787 5785 5783 5781 5779 5778 5776 5775 5773 5772 5771 5770 5770 5769 5768 5768 5767 5767 5767 5767 5767 5766 5766 5765 5765 5765 5765 5765 5765 5764 5764 5763
5805 5802 5800 5798 5796 5795 5792 5789 5788 5786 5782 5779 5777 5775 5773 5771 5768 5766 5765 5764 5763 5762 5761 5760 5759 5759 5758 5757 5757 5757 5757 5757 5757 5757 5757 5757 5758 5758 5758 5758 5758 5758 5758 5757
5797 5795 5792 5791 5790 5785 5782 5780 5777 5775 5772 5769 5766 5764 5761 5759 5757 5755 5754 5752 5750 5749 5748 5748 5747 5747 5747 5746 5746 5746 5747 5746 5747 5747 5748 5748 5748 5749 5749 5750 5750 5751 5751 5750
5788 5785 5783 5781 5778 5775 5773 5770 5767 5764 5761 5757 5754 5751 5749 5746 5744 5743 5741 5739 5737 5736 5735 5734 5734 5734 5734 5734 5734 5734 5734 5735 5735 5736 5737 5738 5738 5739 5740 5741 5741 5742 5743 5743
5779 5776 5774 5771 5768 5765 5762 5759 5755 5752 5749 5745 5742 5738 5735 5733 5730 5728 5727 5725 5723 5722 5720 5720 5719 5720 5720 5720 5720 5720 5721 5721 5723 5724 5725 5726 5727 5728 5730 5731 5732 5733 5734 5734
5769 5766 5763 5761 5758 5754 5751 5747 5743 5739 5736 5733 5729 5726 5722 5718 5715 5713 5711 5709 5707 5706 5704 5704 5703 5703 5704 5705 5705 5706 5706 5707 5709 5710 5712 5714 5715 5717 5718 5720 5721 5722 5724 5725